Saskatoon, Saskatchewan

12:21 AM CST on June 27, 2017 (GMT -0600)
Saskatoon

Weather History for CYXE - March, 2013

Change the Weather History Date:

Friday, March 15, 2013

  Actual Average Record
Temperature  
Mean Temperature 2 °F -  
Max Temperature 8 °F 40 °F 51 °F (2012)
Min Temperature -7 °F 19 °F -16 °F (1997)
Degree Days  
Heating Degree Days 64    
Moisture  
Dew Point -1 °F    
Average Humidity 80    
Maximum Humidity 92    
Minimum Humidity 72    
Precipitation  
Precipitation 0.00 in 0.02 in - ()
Sea Level Pressure  
Sea Level Pressure 30.34 in    
Wind  
Wind Speed 13 mph ()    
Max Wind Speed 22 mph    
Max Gust Speed 23 mph    
Visibility 7.0 miles    
Events Snow    
Averages and records for this station are not official NWS values.
T = Trace of Precipitation, MM = Missing Value Source: Averaged Metar Reports

Daily Weather History Graph

Daily Weather History Graph

Search for Another Location

Airport or City:

Trip Planner

Search our weather history database for the weather conditions in past years. The results will help you decide how hot, cold, wet, or windy it might be!

Date:

Astronomy

Mar. 15, 2013 Rise Set
Actual Time 7:20 AM CST 7:11 PM CST
Civil Twilight 6:46 AM CST 7:45 PM CST
Nautical Twilight 6:06 AM CST 8:25 PM CST
Astronomical Twilight 5:26 AM CST 9:06 PM CST
Moon 8:39 AM CST (3/15) No Moon Set
Length of Visible Light 12h 59m
Length of Day
11h 51m
Waxing Crescent, 16% of the Moon is Illuminated
Mar 15
Waxing Crescent
Mar 19
First Quarter
Mar 27
Full
Apr 2
Last Quarter
Apr 10
New

Hourly Weather History & Observations

Time (CST) Temp. Windchill Dew Point Humidity Pressure Visibility Wind Dir Wind Speed Gust Speed Precip Events Conditions
12:00 AM 8.6 °F -7.7 °F 5.0 °F 85% 30.38 in 6.0 mi East 13.8 mph - N/A Snow Light Snow
1:00 AM 8.6 °F -9.5 °F 3.2 °F 79% 30.36 in 3.0 mi East 17.3 mph - N/A Snow Light Snow
2:00 AM 6.8 °F -10.7 °F 1.4 °F 79% 30.35 in 3.0 mi East 15.0 mph - N/A Snow Light Snow
3:00 AM 6.8 °F -12.4 °F 1.4 °F 79% 30.33 in 3.0 mi East 18.4 mph - N/A Snow Light Snow
4:00 AM 5.0 °F -14.2 °F -0.4 °F 78% 30.31 in 2.0 mi East 17.3 mph 23.0 mph N/A Snow Light Snow
4:45 AM 5.0 °F -13.6 °F 1.4 °F 85% 30.30 in 1.0 mi ENE 16.1 mph - N/A Snow Light Snow
5:00 AM 5.0 °F -14.7 °F 1.4 °F 85% 30.30 in 1.0 mi ENE 18.4 mph - N/A Snow Light Snow
5:46 AM 3.2 °F -18.6 °F -0.4 °F 85% 30.29 in 0.8 mi ENE 21.9 mph - N/A Snow Light Snow
6:00 AM 3.2 °F -18.1 °F -0.4 °F 85% 30.29 in 1.0 mi ENE 20.7 mph - N/A Snow Light Snow
7:00 AM 3.2 °F -18.1 °F -0.4 °F 85% 30.28 in 1.2 mi ENE 20.7 mph - N/A Snow Light Snow
8:00 AM 3.2 °F -17.1 °F -0.4 °F 85% 30.28 in 1.0 mi ENE 18.4 mph - N/A Snow Light Snow
9:00 AM 5.0 °F -14.2 °F -0.4 °F 78% 30.29 in 1.0 mi ENE 17.3 mph - N/A Snow Light Snow
10:00 AM 3.2 °F -16.5 °F -0.4 °F 85% 30.30 in 1.0 mi East 17.3 mph - N/A Snow Light Snow
11:00 AM 5.0 °F -13.6 °F -0.4 °F 78% 30.32 in 1.0 mi East 16.1 mph - N/A Snow Light Snow
11:28 AM 5.0 °F -13.0 °F -0.4 °F 78% 30.32 in 2.0 mi East 15.0 mph - N/A Snow Light Snow
12:00 PM 5.0 °F -11.6 °F -0.4 °F 78% 30.33 in 1.5 mi East 12.7 mph 19.6 mph N/A Snow Light Snow
12:51 PM 5.0 °F -12.3 °F -0.4 °F 78% 30.34 in 5.0 mi ENE 13.8 mph - N/A Snow Light Snow
1:00 PM 5.0 °F -11.6 °F -0.4 °F 78% 30.34 in 8.0 mi East 12.7 mph - N/A Snow Light Snow
2:00 PM 6.8 °F -7.8 °F 1.4 °F 79% 30.33 in 6.0 mi East 10.4 mph - N/A Snow Light Snow
3:00 PM 6.8 °F -7.8 °F 1.4 °F 79% 30.33 in 8.0 mi ENE 10.4 mph - N/A Snow Light Snow
4:00 PM 6.8 °F -8.6 °F -0.4 °F 72% 30.35 in 15.0 mi NE 11.5 mph - N/A Snow Light Snow
4:18 PM 5.0 °F -11.6 °F -0.4 °F 78% 30.36 in 15.0 mi NNE 12.7 mph - N/A   Overcast
5:00 PM 5.0 °F -10.0 °F -0.4 °F 78% 30.36 in 15.0 mi NE 10.4 mph - N/A   Overcast
5:18 PM 5.0 °F -10.0 °F -0.4 °F 78% 30.37 in 15.0 mi NE 10.4 mph - N/A Snow Light Snow
6:00 PM 5.0 °F -9.1 °F -0.4 °F 78% 30.37 in 8.0 mi NE 9.2 mph - N/A Snow Light Snow
6:04 PM 5.0 °F -9.1 °F -0.4 °F 78% 30.37 in 1.5 mi NE 9.2 mph - N/A Snow Light Snow
6:16 PM 5.0 °F -8.1 °F -0.4 °F 78% 30.38 in 8.0 mi NNE 8.1 mph - N/A Snow Light Snow
6:43 PM 5.0 °F -8.1 °F -0.4 °F 78% 30.38 in 15.0 mi North 8.1 mph - N/A   Mostly Cloudy
7:00 PM 5.0 °F -6.9 °F -0.4 °F 78% 30.38 in 15.0 mi North 6.9 mph - N/A   Mostly Cloudy
7:41 PM 3.2 °F -9.1 °F -2.2 °F 78% 30.39 in 15.0 mi North 6.9 mph - N/A   Ice Crystals
8:00 PM 3.2 °F -6.2 °F -2.2 °F 78% 30.39 in 15.0 mi North 4.6 mph - N/A   Ice Crystals
9:00 PM -0.4 °F -8.3 °F -4.0 °F 85% 30.40 in 15.0 mi NNW 3.5 mph - N/A   Ice Crystals
10:00 PM -5.8 °F -19.9 °F -7.6 °F 92% 30.40 in 15.0 mi WNW 6.9 mph - N/A   Ice Crystals
11:00 PM -7.6 °F -20.6 °F -11.2 °F 84% 30.41 in 15.0 mi West 5.8 mph - N/A   Ice Crystals